When you browse on this site, cookies collect data to enhance your experience and personalize the content and advertising you see.
Visit our Privacy Policy to learn more. By continuing to use the site, you agree to this use of cookies and data.
  • In Österreich
  • Länderverzeichnis
  • Für 7 Tage
  • Wassertemperatur
  • Wetterkarte
  • News
  • Widgets
  • user-avatar
    Anmelden

    Stündliche Wetter Tlaxcoapan

    Heute, 25 August, Sonntag

    Zeit Temperatur Niederschläge Wind Luftdruck Luftfeuchtigkeit
    00:00 +16°C° 0 mm 0 m/S 595 mmHg 87%
    01:00 +15°C° 0 mm 0 m/S 595 mmHg 86%
    02:00 +16°C° 0 mm 1 m/S 594 mmHg 86%
    03:00 +16°C° 0 mm 1 m/S 594 mmHg 86%
    04:00 +15°C° 0 mm 1 m/S 594 mmHg 85%
    05:00 +15°C° 0 mm 1 m/S 594 mmHg 85%
    06:00 +16°C° 0 mm 1 m/S 595 mmHg 79%
    07:00 +19°C° 0 mm 1 m/S 596 mmHg 73%
    08:00 +21°C° 0 mm 1 m/S 597 mmHg 67%
    09:00 +23°C° 0 mm 1 m/S 597 mmHg 61%
    10:00 +24°C° 0 mm 1 m/S 597 mmHg 56%
    11:00 +26°C° 0 mm 1 m/S 598 mmHg 50%
    12:00 +26°C° 0.1 mm 2 m/S 597 mmHg 49%
    13:00 +27°C° 0.1 mm 2 m/S 597 mmHg 48%
    14:00 +27°C° 0.1 mm 3 m/S 597 mmHg 46%
    15:00 +27°C° 0.2 mm 3 m/S 596 mmHg 52%
    16:00 +26°C° 0.2 mm 3 m/S 596 mmHg 57%
    17:00 +25°C° 0.2 mm 2 m/S 596 mmHg 62%
    18:00 +23°C° 0.5 mm 2 m/S 595 mmHg 68%
    19:00 +21°C° 0.5 mm 1 m/S 595 mmHg 74%
    20:00 +19°C° 0.5 mm 1 m/S 595 mmHg 81%
    21:00 +19°C° 0.3 mm 1 m/S 595 mmHg 82%
    22:00 +18°C° 0.3 mm 1 m/S 594 mmHg 82%
    23:00 +18°C° 0.3 mm 1 m/S 594 mmHg 83%

    Morgen, 26 August, Montag

    Zeit Temperatur Niederschläge Wind Luftdruck Luftfeuchtigkeit
    00:00 +16°C° 0.1 mm 1 m/S 594 mmHg 84%
    01:00 +16°C° 0.1 mm 1 m/S 594 mmHg 85%
    02:00 +16°C° 0.1 mm 1 m/S 593 mmHg 85%
    03:00 +15°C° 0.2 mm 0 m/S 593 mmHg 86%
    04:00 +14°C° 0.2 mm 0 m/S 593 mmHg 87%
    05:00 +14°C° 0.2 mm 0 m/S 593 mmHg 88%
    06:00 +15°C° 0 mm 0 m/S 593 mmHg 83%
    07:00 +17°C° 0 mm 0 m/S 594 mmHg 79%
    08:00 +18°C° 0 mm 0 m/S 595 mmHg 74%
    09:00 +21°C° 0.3 mm 1 m/S 595 mmHg 69%
    10:00 +23°C° 0.3 mm 1 m/S 596 mmHg 64%
    11:00 +24°C° 0.3 mm 1 m/S 596 mmHg 60%
    12:00 +24°C° 1.2 mm 2 m/S 595 mmHg 59%
    13:00 +25°C° 1.2 mm 2 m/S 595 mmHg 58%
    14:00 +25°C° 1.2 mm 2 m/S 595 mmHg 58%
    15:00 +24°C° 1 mm 2 m/S 594 mmHg 62%
    16:00 +23°C° 1 mm 2 m/S 594 mmHg 67%
    17:00 +23°C° 1 mm 2 m/S 593 mmHg 72%
    18:00 +20°C° 1.1 mm 2 m/S 594 mmHg 75%
    19:00 +20°C° 1.1 mm 1 m/S 594 mmHg 78%
    20:00 +19°C° 1.1 mm 1 m/S 595 mmHg 80%
    21:00 +19°C° 0.4 mm 1 m/S 594 mmHg 81%
    22:00 +18°C° 0.4 mm 1 m/S 594 mmHg 83%
    23:00 +16°C° 0.4 mm 1 m/S 594 mmHg 84%

    übermorgen, 27 August, Dienstag

    Zeit Temperatur Niederschläge Wind Luftdruck Luftfeuchtigkeit
    00:00 +16°C° 0.1 mm 1 m/S 594 mmHg 86%
    01:00 +16°C° 0.1 mm 1 m/S 593 mmHg 87%
    02:00 +14°C° 0.1 mm 0 m/S 593 mmHg 89%
    03:00 +14°C° 0 mm 0 m/S 593 mmHg 89%
    04:00 +14°C° 0 mm 0 m/S 593 mmHg 90%
    05:00 +13°C° 0 mm 0 m/S 593 mmHg 91%
    06:00 +15°C° 0 mm 0 m/S 594 mmHg 86%
    07:00 +16°C° 0 mm 0 m/S 595 mmHg 81%
    08:00 +18°C° 0 mm 0 m/S 595 mmHg 76%
    09:00 +21°C° 0.1 mm 1 m/S 596 mmHg 70%
    10:00 +23°C° 0.1 mm 1 m/S 596 mmHg 65%
    11:00 +24°C° 0.1 mm 2 m/S 596 mmHg 59%
    12:00 +25°C° 0.5 mm 2 m/S 596 mmHg 57%
    13:00 +25°C° 0.5 mm 3 m/S 596 mmHg 55%
    14:00 +26°C° 0.5 mm 4 m/S 596 mmHg 53%
    15:00 +23°C° 1 mm 4 m/S 595 mmHg 60%
    16:00 +22°C° 1 mm 4 m/S 595 mmHg 67%
    17:00 +21°C° 1 mm 4 m/S 594 mmHg 74%
    18:00 +20°C° 1 mm 3 m/S 594 mmHg 78%
    19:00 +19°C° 1 mm 2 m/S 595 mmHg 81%
    20:00 +19°C° 1 mm 1 m/S 595 mmHg 84%
    21:00 +18°C° 0.3 mm 1 m/S 595 mmHg 84%
    22:00 +18°C° 0.3 mm 1 m/S 595 mmHg 85%
    23:00 +16°C° 0.3 mm 0 m/S 596 mmHg 85%

    28 August, Mittwoch

    Zeit Temperatur Niederschläge Wind Luftdruck Luftfeuchtigkeit
    00:00 +15°C° 0.2 mm 0 m/S 595 mmHg 85%
    01:00 +15°C° 0.2 mm 0 m/S 595 mmHg 85%
    02:00 +16°C° 0.2 mm 1 m/S 595 mmHg 85%
    03:00 +14°C° 0 mm 0 m/S 595 mmHg 86%
    04:00 +14°C° 0 mm 0 m/S 595 mmHg 86%
    05:00 +13°C° 0 mm 0 m/S 595 mmHg 87%
    06:00 +15°C° 0 mm 0 m/S 596 mmHg 82%
    07:00 +17°C° 0 mm 0 m/S 597 mmHg 76%
    08:00 +18°C° 0 mm 0 m/S 598 mmHg 70%
    09:00 +22°C° 0 mm 1 m/S 598 mmHg 65%
    10:00 +23°C° 0 mm 2 m/S 598 mmHg 59%
    11:00 +25°C° 0 mm 2 m/S 598 mmHg 53%
    12:00 +25°C° 0 mm 3 m/S 598 mmHg 52%
    13:00 +26°C° 0 mm 5 m/S 598 mmHg 52%
    14:00 +26°C° 0 mm 6 m/S 597 mmHg 51%
    15:00 +23°C° 0.4 mm 6 m/S 597 mmHg 57%
    16:00 +22°C° 0.4 mm 6 m/S 596 mmHg 64%
    17:00 +21°C° 0.4 mm 6 m/S 595 mmHg 70%
    18:00 +19°C° 0 mm 4 m/S 595 mmHg 76%
    19:00 +17°C° 0 mm 3 m/S 595 mmHg 83%
    20:00 +16°C° 0 mm 2 m/S 595 mmHg 90%
    21:00 +15°C° 0 mm 1 m/S 595 mmHg 91%
    22:00 +15°C° 0 mm 1 m/S 595 mmHg 93%
    23:00 +14°C° 0 mm 1 m/S 595 mmHg 95%

    29 August, Donnerstag

    Zeit Temperatur Niederschläge Wind Luftdruck Luftfeuchtigkeit
    00:00 +14°C° 0 mm 1 m/S 595 mmHg 95%
    01:00 +13°C° 0 mm 0 m/S 595 mmHg 95%
    02:00 +13°C° 0 mm 0 m/S 594 mmHg 95%
    03:00 +13°C° 0 mm 0 m/S 595 mmHg 94%
    04:00 +13°C° 0 mm 0 m/S 595 mmHg 94%
    05:00 +13°C° 0 mm 0 m/S 595 mmHg 93%
    06:00 +14°C° 0 mm 0 m/S 596 mmHg 87%
    07:00 +15°C° 0 mm 0 m/S 596 mmHg 80%
    08:00 +16°C° 0 mm 0 m/S 597 mmHg 74%
    09:00 +20°C° 0 mm 1 m/S 597 mmHg 64%
    10:00 +22°C° 0 mm 1 m/S 598 mmHg 54%
    11:00 +24°C° 0 mm 1 m/S 598 mmHg 44%
    12:00 +25°C° 0 mm 2 m/S 598 mmHg 42%
    13:00 +25°C° 0 mm 3 m/S 598 mmHg 40%
    14:00 +26°C° 0 mm 4 m/S 597 mmHg 38%
    15:00 +25°C° 0 mm 5 m/S 597 mmHg 48%
    16:00 +22°C° 0 mm 5 m/S 596 mmHg 58%
    17:00 +21°C° 0 mm 6 m/S 596 mmHg 67%
    18:00 +19°C° 0.3 mm 4 m/S 596 mmHg 76%
    19:00 +17°C° 0.3 mm 3 m/S 596 mmHg 84%
    20:00 +16°C° 0.3 mm 2 m/S 596 mmHg 93%
    21:00 +15°C° 0 mm 2 m/S 596 mmHg 94%
    22:00 +15°C° 0 mm 1 m/S 595 mmHg 95%
    23:00 +14°C° 0 mm 1 m/S 595 mmHg 95%

    30 August, Freitag

    Zeit Temperatur Niederschläge Wind Luftdruck Luftfeuchtigkeit
    00:00 +13°C° 0 mm 0 m/S 595 mmHg 95%
    01:00 +13°C° 0 mm 0 m/S 595 mmHg 95%
    02:00 +12°C° 0 mm 0 m/S 594 mmHg 95%
    03:00 +12°C° 0 mm 0 m/S 594 mmHg 95%
    04:00 +12°C° 0 mm 0 m/S 594 mmHg 94%
    05:00 +11°C° 0 mm 0 m/S 594 mmHg 94%
    06:00 +13°C° 0 mm 0 m/S 595 mmHg 86%
    07:00 +15°C° 0 mm 0 m/S 596 mmHg 79%
    08:00 +17°C° 0 mm 0 m/S 597 mmHg 71%
    09:00 +20°C° 0 mm 1 m/S 597 mmHg 62%
    10:00 +22°C° 0 mm 1 m/S 597 mmHg 52%
    11:00 +24°C° 0 mm 2 m/S 597 mmHg 42%
    12:00 +24°C° 0 mm 3 m/S 597 mmHg 41%
    13:00 +25°C° 0 mm 4 m/S 597 mmHg 41%
    14:00 +26°C° 0 mm 5 m/S 596 mmHg 40%
    15:00 +23°C° 0.1 mm 5 m/S 596 mmHg 48%
    16:00 +22°C° 0.1 mm 5 m/S 596 mmHg 56%
    17:00 +21°C° 0.1 mm 5 m/S 595 mmHg 65%
    18:00 +19°C° 0.3 mm 4 m/S 595 mmHg 73%
    19:00 +17°C° 0.3 mm 3 m/S 595 mmHg 81%
    20:00 +16°C° 0.3 mm 2 m/S 595 mmHg 89%
    21:00 +15°C° 0 mm 1 m/S 595 mmHg 90%
    22:00 +15°C° 0 mm 1 m/S 595 mmHg 91%
    23:00 +13°C° 0 mm 0 m/S 594 mmHg 93%
    Mehr zeigen